This is the latest recevied weather packets stored in our database for station/object DM8MH-13. If no packets are shown the sender has not sent any weather packets the latest 10 day(s).
| Time | Temp. | Humidity | Pressure | Rain* | Wind** | Luminosity | Snow |
|---|---|---|---|---|---|---|---|
| 1777652472 | 22.22° C | 39% | 1025 hPa | 0 mm | - | 298 W/m² | - |
| 1777651871 | 21.67° C | 39% | 1025 hPa | 0 mm | - | 330 W/m² | - |
| 1777651271 | 22.22° C | 40% | 1025 hPa | 0 mm | - | 352 W/m² | - |
| 1777650671 | 22.22° C | 39% | 1025.3 hPa | 0 mm | - | 376 W/m² | - |
| 1777650073 | 22.78° C | 37% | 1025.4 hPa | 0 mm | - | 407 W/m² | - |
| 1777649471 | 22.78° C | 37% | 1025.5 hPa | 0 mm | - | 426 W/m² | - |
| 1777648872 | 22.78° C | 37% | 1025.6 hPa | 0 mm | - | 449 W/m² | - |
| 1777648271 | 22.78° C | 38% | 1025.7 hPa | 0 mm | - | 479 W/m² | - |
| 1777647671 | 22.22° C | 38% | 1025.8 hPa | 0 mm | - | 500 W/m² | - |
| 1777647072 | 22.78° C | 36% | 1025.9 hPa | 0 mm | - | 519 W/m² | - |
| 1777646472 | 22.78° C | 36% | 1026 hPa | 0 mm | - | 547 W/m² | - |
| 1777645871 | 22.78° C | 37% | 1026.1 hPa | 0 mm | - | 565 W/m² | - |
| 1777645272 | 22.22° C | 37% | 1026 hPa | 0 mm | - | 581 W/m² | - |
| 1777644672 | 23.33° C | 36% | 1026.1 hPa | 0 mm | - | 606 W/m² | - |
| 1777644072 | 22.78° C | 36% | 1026.4 hPa | 0 mm | - | 623 W/m² | - |
| 1777643471 | 22.78° C | 37% | 1026.4 hPa | 0 mm | - | 638 W/m² | - |
| 1777642872 | 22.78° C | 37% | 1026.5 hPa | 0 mm | - | 658 W/m² | - |
| 1777642272 | 22.78° C | 37% | 1026.6 hPa | 0 mm | - | 673 W/m² | - |
| 1777641672 | 22.78° C | 38% | 1026.7 hPa | 0 mm | - | 683 W/m² | - |
| 1777641071 | 22.78° C | 38% | 1027 hPa | 0 mm | - | 701 W/m² | - |
| 1777640471 | 22.22° C | 39% | 1027.1 hPa | 0 mm | - | 713 W/m² | - |
| 1777639872 | 21.67° C | 39% | 1027.2 hPa | 0 mm | - | 722 W/m² | - |
| 1777639272 | 22.22° C | 37% | 1027.3 hPa | 0 mm | - | 733 W/m² | - |
| 1777638672 | 22.22° C | 37% | 1027.4 hPa | 0 mm | - | 746 W/m² | - |
| 1777638071 | 22.22° C | 37% | 1027.6 hPa | 0 mm | - | 749 W/m² | - |
* Rain latest hour (hover to see other rain measurements)
** Current wind speed in m/s (hover to see current wind gust speed)